When you browse on this site, cookies collect data to enhance your experience and personalize the content and advertising you see.
Visit our Privacy Policy to learn more. By continuing to use the site, you agree to this use of cookies and data.
  • Em Portugal
  • Lista de países
  • Para 7 dias
  • Temperatura da água
  • Mapas de satélite
  • Mapa do tempo
  • Widgets de tempo
  • user-avatar
    Iniciar Sessão

    Previsão horária em Taneevka

    Hoje, 24 Junho, Segunda-feira

    Tempo Temperatura Precipitação Vento Pressão Humidade
    00:00 +22°C° 0 mm 1 m/s 749 mmHg 88%
    01:00 +21°C° 0 mm 1 m/s 749 mmHg 90%
    02:00 +21°C° 0 mm 1 m/s 749 mmHg 91%
    03:00 +19°C° 0 mm 2 m/s 749 mmHg 91%
    04:00 +20°C° 0.2 mm 2 m/s 749 mmHg 90%
    05:00 +20°C° 0.2 mm 2 m/s 749 mmHg 89%
    06:00 +20°C° 0.2 mm 2 m/s 749 mmHg 88%
    07:00 +21°C° 0.1 mm 2 m/s 749 mmHg 84%
    08:00 +23°C° 0.1 mm 2 m/s 749 mmHg 80%
    09:00 +24°C° 0 mm 2 m/s 749 mmHg 75%
    10:00 +25°C° 0.3 mm 3 m/s 749 mmHg 74%
    11:00 +25°C° 0.3 mm 3 m/s 749 mmHg 72%
    12:00 +26°C° 0.3 mm 3 m/s 749 mmHg 70%
    13:00 +25°C° 0.5 mm 3 m/s 749 mmHg 73%
    14:00 +25°C° 0.5 mm 3 m/s 749 mmHg 75%
    15:00 +24°C° 0 mm 3 m/s 749 mmHg 87%
    16:00 +24°C° 0.4 mm 3 m/s 749 mmHg 85%
    17:00 +24°C° 0.4 mm 3 m/s 749 mmHg 83%
    18:00 +22°C° 0.4 mm 4 m/s 749 mmHg 82%
    19:00 +21°C° 0.1 mm 3 m/s 749 mmHg 82%
    20:00 +19°C° 0.1 mm 3 m/s 749 mmHg 82%
    21:00 +18°C° 0.1 mm 2 m/s 750 mmHg 82%
    22:00 +17°C° 0 mm 2 m/s 750 mmHg 84%
    23:00 +16°C° 0 mm 2 m/s 749 mmHg 85%

    Amanhã, 25 Junho, Terça-feira

    Tempo Temperatura Precipitação Vento Pressão Humidade
    00:00 +14°C° 0 mm 3 m/s 749 mmHg 87%
    01:00 +14°C° 0 mm 3 m/s 750 mmHg 86%
    02:00 +13°C° 0 mm 3 m/s 750 mmHg 84%
    03:00 +12°C° 0 mm 3 m/s 750 mmHg 82%
    04:00 +13°C° 0 mm 3 m/s 750 mmHg 80%
    05:00 +13°C° 0 mm 3 m/s 750 mmHg 78%
    06:00 +14°C° 0 mm 4 m/s 751 mmHg 76%
    07:00 +15°C° 0 mm 4 m/s 751 mmHg 73%
    08:00 +18°C° 0 mm 4 m/s 751 mmHg 69%
    09:00 +19°C° 0 mm 5 m/s 752 mmHg 66%
    10:00 +20°C° 0 mm 5 m/s 752 mmHg 62%
    11:00 +21°C° 0 mm 5 m/s 752 mmHg 58%
    12:00 +22°C° 0 mm 5 m/s 752 mmHg 54%
    13:00 +22°C° 0 mm 5 m/s 752 mmHg 54%
    14:00 +22°C° 0 mm 5 m/s 752 mmHg 55%
    15:00 +22°C° 0 mm 5 m/s 752 mmHg 56%
    16:00 +21°C° 0 mm 4 m/s 752 mmHg 60%
    17:00 +21°C° 0 mm 4 m/s 752 mmHg 64%
    18:00 +20°C° 0 mm 3 m/s 752 mmHg 68%
    19:00 +18°C° 0 mm 3 m/s 752 mmHg 72%
    20:00 +17°C° 0 mm 3 m/s 752 mmHg 76%
    21:00 +14°C° 0 mm 3 m/s 753 mmHg 80%
    22:00 +13°C° 0 mm 3 m/s 753 mmHg 82%
    23:00 +13°C° 0 mm 3 m/s 753 mmHg 85%

    Depois de amanhã, 26 Junho, Quarta-feira

    Tempo Temperatura Precipitação Vento Pressão Humidade
    00:00 +13°C° 0 mm 2 m/s 752 mmHg 87%
    01:00 +12°C° 0 mm 2 m/s 753 mmHg 88%
    02:00 +12°C° 0 mm 2 m/s 753 mmHg 89%
    03:00 +10°C° 0 mm 2 m/s 753 mmHg 89%
    04:00 +11°C° 0 mm 3 m/s 753 mmHg 87%
    05:00 +12°C° 0 mm 3 m/s 753 mmHg 84%
    06:00 +12°C° 0 mm 3 m/s 753 mmHg 81%
    07:00 +14°C° 0 mm 3 m/s 753 mmHg 76%
    08:00 +16°C° 0 mm 3 m/s 753 mmHg 70%
    09:00 +18°C° 0 mm 3 m/s 753 mmHg 64%
    10:00 +18°C° 0 mm 3 m/s 753 mmHg 60%
    11:00 +19°C° 0 mm 3 m/s 752 mmHg 56%
    12:00 +19°C° 0 mm 3 m/s 752 mmHg 53%
    13:00 +20°C° 0 mm 3 m/s 752 mmHg 52%
    14:00 +20°C° 0 mm 3 m/s 752 mmHg 52%
    15:00 +20°C° 0 mm 3 m/s 751 mmHg 52%
    16:00 +20°C° 0 mm 3 m/s 751 mmHg 56%
    17:00 +20°C° 0 mm 3 m/s 750 mmHg 60%
    18:00 +19°C° 0 mm 2 m/s 750 mmHg 64%
    19:00 +18°C° 0 mm 2 m/s 750 mmHg 69%
    20:00 +16°C° 0 mm 1 m/s 749 mmHg 73%
    21:00 +14°C° 0 mm 1 m/s 749 mmHg 78%
    22:00 +14°C° 0 mm 1 m/s 749 mmHg 78%
    23:00 +14°C° 0 mm 2 m/s 748 mmHg 79%

    27 Junho, Quinta-feira

    Tempo Temperatura Precipitação Vento Pressão Humidade
    00:00 +14°C° 0 mm 2 m/s 748 mmHg 80%
    01:00 +14°C° 0.2 mm 2 m/s 748 mmHg 84%
    02:00 +14°C° 0.2 mm 2 m/s 747 mmHg 89%
    03:00 +13°C° 0.2 mm 2 m/s 747 mmHg 93%
    04:00 +13°C° 0.1 mm 3 m/s 747 mmHg 93%
    05:00 +13°C° 0.1 mm 3 m/s 746 mmHg 93%
    06:00 +14°C° 0.1 mm 3 m/s 746 mmHg 93%
    07:00 +14°C° 0.1 mm 3 m/s 745 mmHg 90%
    08:00 +16°C° 0.1 mm 3 m/s 745 mmHg 88%
    09:00 +16°C° 0.1 mm 3 m/s 745 mmHg 86%
    10:00 +17°C° 0.1 mm 3 m/s 744 mmHg 84%
    11:00 +17°C° 0.1 mm 3 m/s 744 mmHg 82%
    12:00 +17°C° 0.1 mm 4 m/s 743 mmHg 81%
    13:00 +17°C° 0.1 mm 4 m/s 743 mmHg 83%
    14:00 +17°C° 0.1 mm 4 m/s 742 mmHg 85%
    15:00 +15°C° 0.1 mm 4 m/s 742 mmHg 87%
    16:00 +15°C° 1.1 mm 4 m/s 741 mmHg 90%
    17:00 +16°C° 1.1 mm 3 m/s 741 mmHg 94%
    18:00 +16°C° 1.1 mm 3 m/s 740 mmHg 97%
    19:00 +15°C° 1.4 mm 4 m/s 740 mmHg 97%
    20:00 +14°C° 1.4 mm 5 m/s 739 mmHg 97%
    21:00 +14°C° 1.4 mm 5 m/s 739 mmHg 97%
    22:00 +15°C° 0.5 mm 5 m/s 738 mmHg 97%
    23:00 +15°C° 0.5 mm 6 m/s 738 mmHg 96%

    28 Junho, Sexta-feira

    Tempo Temperatura Precipitação Vento Pressão Humidade
    00:00 +15°C° 0.5 mm 6 m/s 737 mmHg 96%
    01:00 +15°C° 0.2 mm 6 m/s 737 mmHg 96%
    02:00 +15°C° 0.2 mm 6 m/s 736 mmHg 96%
    03:00 +15°C° 0.2 mm 5 m/s 736 mmHg 96%
    04:00 +15°C° 0.2 mm 5 m/s 735 mmHg 95%
    05:00 +15°C° 0.2 mm 5 m/s 735 mmHg 95%
    06:00 +15°C° 0.2 mm 5 m/s 734 mmHg 94%
    07:00 +15°C° 0.1 mm 6 m/s 734 mmHg 91%
    08:00 +16°C° 0.1 mm 6 m/s 733 mmHg 87%
    09:00 +16°C° 0.1 mm 6 m/s 733 mmHg 83%
    10:00 +16°C° 1 mm 6 m/s 733 mmHg 87%
    11:00 +15°C° 1 mm 6 m/s 733 mmHg 90%
    12:00 +15°C° 1 mm 6 m/s 733 mmHg 94%
    13:00 +16°C° 0.8 mm 5 m/s 733 mmHg 92%
    14:00 +16°C° 0.8 mm 5 m/s 733 mmHg 91%
    15:00 +17°C° 0.8 mm 5 m/s 733 mmHg 89%
    16:00 +19°C° 0.3 mm 4 m/s 733 mmHg 87%
    17:00 +19°C° 0.3 mm 4 m/s 733 mmHg 86%
    18:00 +19°C° 0.3 mm 3 m/s 733 mmHg 85%
    19:00 +18°C° 0.2 mm 3 m/s 733 mmHg 87%
    20:00 +16°C° 0.2 mm 3 m/s 734 mmHg 90%
    21:00 +14°C° 0.2 mm 3 m/s 734 mmHg 92%
    22:00 +13°C° 0 mm 3 m/s 734 mmHg 93%
    23:00 +14°C° 0 mm 2 m/s 734 mmHg 93%

    29 Junho, Sábado

    Tempo Temperatura Precipitação Vento Pressão Humidade
    00:00 +13°C° 0 mm 2 m/s 734 mmHg 94%
    01:00 +12°C° 0 mm 2 m/s 734 mmHg 95%
    02:00 +11°C° 0 mm 3 m/s 734 mmHg 95%
    03:00 +11°C° 0 mm 3 m/s 734 mmHg 96%
    04:00 +11°C° 0 mm 3 m/s 734 mmHg 95%
    05:00 +12°C° 0 mm 3 m/s 735 mmHg 94%
    06:00 +12°C° 0 mm 4 m/s 735 mmHg 92%
    07:00 +14°C° 0 mm 4 m/s 735 mmHg 87%
    08:00 +15°C° 0 mm 4 m/s 735 mmHg 82%
    09:00 +17°C° 0 mm 4 m/s 735 mmHg 77%
    10:00 +18°C° 0.4 mm 4 m/s 735 mmHg 75%
    11:00 +19°C° 0.4 mm 4 m/s 735 mmHg 74%
    12:00 +19°C° 0.4 mm 4 m/s 736 mmHg 72%
    13:00 +19°C° 0.5 mm 4 m/s 736 mmHg 72%
    14:00 +20°C° 0.5 mm 4 m/s 736 mmHg 72%
    15:00 +20°C° 0.5 mm 4 m/s 736 mmHg 71%
    16:00 +20°C° 0.4 mm 4 m/s 736 mmHg 74%
    17:00 +19°C° 0.4 mm 3 m/s 736 mmHg 76%
    18:00 +19°C° 0.4 mm 2 m/s 736 mmHg 79%
    19:00 +18°C° 0.1 mm 2 m/s 736 mmHg 82%
    20:00 +16°C° 0.1 mm 2 m/s 736 mmHg 85%
    21:00 +14°C° 0.1 mm 1 m/s 737 mmHg 89%
    22:00 +14°C° 0 mm 1 m/s 737 mmHg 90%
    23:00 +13°C° 0 mm 1 m/s 737 mmHg 91%
    Mostrar mais